Date,TemperatureHighF,TemperatureAvgF,TemperatureLowF,DewpointHighF,DewpointAvgF,DewpointLowF,HumidityHigh,HumidityAvg,HumidityLow,PressureMaxIn,PressureMinIn,WindSpeedMaxMPH,WindSpeedAvgMPH,GustSpeedMaxMPH,PrecipitationSumIn
2013-1-1,46.0,38.4,33.0,37.0,31.4,28.0,89,76,56,0.00,40.00,8,4,21,0.03
2013-1-2,50.0,39.6,33.0,30.0,27.0,24.0,70,61,46,0.00,40.00,8,6,19,0.00
2013-1-3,51.0,41.7,34.0,48.0,32.7,23.0,94,72,45,0.00,40.00,10,7,23,0.16
2013-1-4,58.0,47.4,40.0,48.0,43.8,38.0,95,88,63,0.00,40.00,6,1,13,0.19
2013-1-5,51.0,45.5,42.0,44.0,42.0,39.0,96,88,74,0.00,40.00,5,2,11,0.25
2013-1-6,50.0,45.8,42.0,47.0,42.3,40.0,96,88,72,0.00,40.00,12,4,20,0.25
2013-1-7,51.0,48.7,44.0,50.0,47.5,42.0,97,95,91,0.00,40.00,16,8,31,0.46
2013-1-8,52.0,50.3,48.0,50.0,48.0,45.0,96,92,84,0.00,40.00,15,12,30,0.02
2013-1-9,51.0,44.7,37.0,48.0,38.9,31.0,92,80,60,0.00,40.00,17,7,31,0.43
2013-1-10,45.0,40.7,35.0,38.0,34.7,29.0,93,80,55,0.00,40.00,15,9,29,0.64
2013-1-11,46.0,39.6,32.0,38.0,32.3,26.0,93,76,52,0.00,40.00,10,2,23,0.15
2013-1-12,45.0,34.8,31.0,32.0,27.8,26.0,86,76,57,0.00,40.00,5,2,13,0.02
2013-1-13,40.0,32.5,29.0,28.0,25.8,24.0,85,77,58,0.00,40.00,4,3,11,0.00
2013-1-14,47.0,35.4,29.0,30.0,26.9,24.0,84,72,52,0.00,40.00,4,2,13,0.00
2013-1-15,51.0,39.1,33.0,35.0,30.7,28.0,87,73,54,0.00,40.00,5,3,15,0.00
2013-1-16,53.0,40.7,34.0,33.0,30.9,26.0,89,70,43,0.00,40.00,8,5,20,0.00
2013-1-17,54.0,41.2,36.0,31.0,28.9,26.0,76,63,39,0.00,40.00,8,6,26,0.00
2013-1-18,60.0,43.2,37.0,40.0,31.9,27.0,92,65,38,0.00,40.00,8,3,18,0.00
2013-1-19,54.0,42.4,38.0,41.0,34.3,28.0,93,74,50,0.00,40.00,3,1,11,0.00
2013-1-20,58.0,39.8,33.0,39.0,31.8,25.0,94,75,37,0.00,40.00,6,2,13,0.00
2013-1-21,60.0,41.7,35.0,34.0,28.9,25.0,71,61,35,0.00,40.00,8,5,18,0.00
2013-1-22,59.0,45.6,38.0,39.0,30.8,24.0,73,57,26,0.00,40.00,9,5,19,0.00
2013-1-23,45.0,41.9,35.0,43.0,36.8,30.0,95,83,60,0.00,40.00,5,1,11,0.43
2013-1-24,54.0,43.3,35.0,46.0,40.6,34.0,95,90,73,0.00,40.00,8,5,16,0.13
2013-1-25,50.0,46.8,43.0,49.0,45.5,42.0,97,95,91,0.00,40.00,11,6,22,0.51
2013-1-26,53.0,44.1,40.0,43.0,39.5,36.0,94,84,61,0.00,40.00,9,4,24,0.48
2013-1-27,44.0,41.3,38.0,41.0,39.0,36.0,95,92,87,0.00,40.00,8,4,21,0.80
2013-1-28,48.0,44.7,42.0,44.0,40.8,38.0,93,86,77,0.00,40.00,9,5,21,0.44
2013-1-29,50.0,45.4,42.0,45.0,42.6,40.0,95,90,76,0.00,40.00,9,4,18,0.20
2013-1-30,49.0,45.6,42.0,48.0,44.6,40.0,96,95,94,0.00,40.00,8,3,12,0.10
2013-1-31,60.0,48.7,42.0,48.0,43.7,40.0,97,84,58,0.00,40.00,6,1,11,0.01
2013-2-1,57.0,46.5,40.0,43.0,40.6,39.0,96,81,55,0.00,40.00,7,3,15,0.00
2013-2-2,59.0,47.9,42.0,44.0,40.7,37.0,86,77,51,0.00,40.00,7,3,14,0.00
2013-2-3,52.0,47.4,44.0,44.0,42.0,38.0,91,82,63,0.00,40.00,3,0,7,0.00
2013-2-4,51.0,46.4,42.0,44.0,41.7,40.0,93,83,70,0.00,40.00,11,3,22,0.00
2013-2-5,52.0,47.0,44.0,49.0,42.9,39.0,93,86,75,0.00,40.00,14,9,28,0.43
2013-2-6,50.0,46.0,41.0,45.0,41.3,37.0,92,84,65,0.00,40.00,17,8,32,0.53
2013-2-7,44.0,39.8,38.0,40.0,37.0,35.0,93,90,84,0.00,40.00,10,5,20,0.70
2013-2-8,49.0,40.1,33.0,40.0,34.7,31.0,95,82,63,0.00,40.00,14,4,27,0.01
2013-2-9,51.0,41.9,32.0,45.0,37.6,30.0,95,85,63,0.00,40.00,3,0,7,0.00
2013-2-10,52.0,46.5,41.0,48.0,40.5,35.0,96,80,56,0.00,40.00,9,3,18,0.01
2013-2-11,52.0,45.3,41.0,45.0,39.2,35.0,95,80,52,0.00,40.00,5,1,10,0.05
2013-2-12,53.0,47.9,45.0,49.0,45.9,44.0,97,93,83,0.00,40.00,5,1,10,0.17
2013-2-13,52.0,47.5,45.0,49.0,45.6,43.0,96,93,83,0.00,40.00,5,1,7,0.07
2013-2-14,56.0,47.2,41.0,46.0,42.9,40.0,96,86,64,0.00,40.00,10,3,17,0.01
2013-2-15,63.0,49.4,39.0,47.0,43.1,37.0,96,81,50,0.00,40.00,5,1,14,0.00
2013-2-16,52.0,47.1,42.0,47.0,42.2,36.0,95,83,68,0.00,40.00,8,3,17,0.01
2013-2-17,50.0,43.1,37.0,42.0,36.2,32.0,93,78,55,0.00,40.00,8,2,15,0.04
2013-2-18,47.0,39.7,33.0,40.0,35.7,31.0,94,86,71,0.00,40.00,14,5,22,0.37
2013-2-19,49.0,42.3,36.0,40.0,36.8,33.0,93,81,65,0.00,40.00,9,3,19,0.67
2013-2-20,46.0,40.6,33.0,41.0,36.7,31.0,94,86,74,0.00,40.00,7,2,22,0.21
2013-2-21,45.0,42.6,39.0,42.0,38.5,33.0,94,86,75,0.00,40.00,9,4,18,0.39
2013-2-22,49.0,45.4,43.0,48.0,42.1,34.0,97,89,66,0.00,40.00,20,10,35,0.89
2013-2-23,49.0,42.0,36.0,39.0,34.3,32.0,91,75,53,0.00,40.00,10,4,23,0.13
2013-2-24,52.0,43.3,36.0,42.0,35.5,29.0,93,76,41,0.00,40.00,12,3,18,0.01
2013-2-25,51.0,44.1,36.0,44.0,36.5,32.0,94,76,49,0.00,40.00,16,5,28,0.43
2013-2-26,52.0,41.6,35.0,39.0,35.0,32.0,93,79,52,0.00,40.00,4,2,11,0.03
2013-2-27,51.0,46.6,42.0,39.0,35.9,26.0,85,67,38,0.00,40.00,9,3,19,0.35
2013-3-7,55.0,54.5,54.0,-99.9,-99.9,-99.9,0,0,100,0.00,40.00,7,6,11,0.00
2013-3-8,55.0,51.4,50.0,-99.9,-99.9,-99.9,0,0,100,0.00,40.00,8,6,14,0.00
2013-3-9,58.0,54.5,51.0,-99.9,-99.9,-99.9,0,0,100,0.00,40.00,8,5,15,0.00
2013-3-10,59.0,54.6,51.0,-99.9,-99.9,-99.9,0,0,100,0.00,40.00,5,2,12,0.00
2013-3-11,59.0,53.0,49.0,-99.9,-99.9,-99.9,0,0,100,0.00,40.00,5,2,9,0.01
2013-3-12,59.0,49.1,45.0,-99.9,-99.9,-99.9,0,0,100,0.00,40.00,5,2,9,0.00
2013-3-13,60.0,49.8,44.0,-99.9,-99.9,-99.9,0,0,100,0.00,40.00,4,1,10,0.00
2013-3-14,56.0,50.2,47.0,-99.9,-99.9,-99.9,0,0,100,0.00,40.00,15,7,29,0.01
2013-3-15,60.0,52.3,48.0,-99.9,-99.9,-99.9,0,0,100,0.00,40.00,10,2,20,0.05
2013-3-16,51.0,47.9,44.0,-99.9,-99.9,-99.9,0,0,100,0.00,40.00,11,5,22,0.31
2013-3-17,52.0,44.4,38.0,-99.9,-99.9,-99.9,0,0,100,0.00,40.00,9,2,22,0.12
2013-3-18,54.0,43.4,33.0,-99.9,-99.9,-99.9,0,0,100,0.00,40.00,11,2,21,0.00
2013-3-19,56.0,48.7,44.0,-99.9,-99.9,-99.9,0,0,100,0.00,40.00,14,3,26,0.65
2013-3-20,54.0,48.8,42.0,-99.9,-99.9,-99.9,0,0,100,0.00,40.00,24,10,44,0.91
2013-3-21,50.0,43.5,37.0,-99.9,-99.9,-99.9,0,0,100,0.00,40.00,9,4,20,0.13
2013-3-22,48.0,41.3,34.0,-99.9,-99.9,-99.9,0,0,100,0.00,40.00,8,2,19,0.20
2013-3-23,50.0,41.1,32.0,-99.9,-99.9,-99.9,0,0,100,0.00,40.00,10,4,18,0.05
2013-3-24,54.0,44.9,38.0,-99.9,-99.9,-99.9,0,0,100,0.00,40.00,8,2,15,0.00
2013-3-25,53.0,46.4,39.0,-99.9,-99.9,-99.9,0,0,100,0.00,40.00,5,1,9,0.00
2013-3-26,55.0,48.7,45.0,-99.9,-99.9,-99.9,0,0,100,0.00,40.00,5,2,9,0.00
2013-4-8,52.0,45.5,39.0,42.0,39.9,38.0,100,81,67,0.00,40.00,9,3,16,0.11
2013-4-9,58.0,48.3,39.0,47.0,44.1,39.0,100,87,59,0.00,40.00,5,1,10,0.03
2013-4-10,54.0,48.2,42.0,52.0,47.0,42.0,100,96,80,0.00,40.00,12,6,25,0.07
2013-4-11,54.0,46.7,40.0,45.0,43.0,40.0,100,88,68,0.00,40.00,13,5,24,0.03
2013-4-12,54.0,45.2,37.0,48.0,42.0,37.0,100,90,68,0.00,40.00,9,3,21,0.05
2013-4-13,51.0,45.7,40.0,43.0,37.4,33.0,100,73,58,0.00,40.00,9,5,21,0.11
2013-4-14,50.0,43.4,39.0,43.0,40.2,38.0,100,89,70,0.00,40.00,7,4,18,0.15
2013-4-15,51.0,44.5,39.0,43.0,39.5,37.0,100,84,62,0.00,40.00,11,4,20,0.29
2013-4-16,55.0,46.6,38.0,44.0,40.5,37.0,100,81,61,0.00,40.00,10,4,18,0.03
2013-4-17,55.0,46.6,35.0,45.0,41.4,35.0,100,84,66,0.00,40.00,10,4,16,0.00
2013-4-18,56.0,50.8,46.0,50.0,43.5,38.0,100,77,56,0.00,40.00,7,4,15,0.00
2013-4-19,52.0,49.7,48.0,52.0,49.7,48.0,100,100,100,0.00,40.00,12,4,21,0.34
2013-4-20,55.0,49.8,45.0,50.0,46.8,42.0,100,90,71,0.00,40.00,10,5,19,0.02
2013-4-21,56.0,48.8,41.0,48.0,45.0,41.0,100,87,68,0.00,40.00,6,2,12,0.01
2013-4-22,67.0,52.0,39.0,48.0,42.4,27.0,100,74,22,0.00,40.00,15,4,26,0.00
2013-4-23,61.0,51.2,40.0,48.0,37.3,28.0,98,62,34,0.00,40.00,17,7,34,0.00
2013-4-24,73.0,55.9,42.0,47.0,38.3,28.0,100,58,19,0.00,40.00,18,7,30,0.00
2013-4-25,58.0,50.5,43.0,50.0,45.8,39.0,100,85,61,0.00,40.00,12,5,25,0.00
2013-4-26,60.0,49.7,45.0,51.0,47.7,44.0,100,94,73,0.00,40.00,9,3,18,0.00
2013-4-27,56.0,50.7,46.0,50.0,47.1,44.0,100,88,70,0.00,40.00,7,3,14,0.00
2013-4-28,59.0,52.7,48.0,55.0,50.2,48.0,100,92,74,0.00,40.00,7,2,13,0.01
2013-4-29,54.0,51.4,49.0,52.0,47.6,39.0,100,88,56,0.00,40.00,15,7,27,0.05
2013-4-30,54.0,48.9,39.0,39.0,35.9,31.0,84,61,53,0.00,40.00,16,11,33,0.02
2013-5-1,58.0,47.5,37.0,45.0,39.3,31.0,100,76,39,0.00,40.00,17,5,31,0.00
2013-5-2,68.0,53.0,41.0,47.0,42.0,35.0,100,70,30,0.00,40.00,19,7,34,0.00
2013-5-3,57.0,49.1,39.0,48.0,44.5,39.0,100,85,64,0.00,40.00,18,6,36,0.00
2013-5-4,86.0,63.2,41.0,47.0,40.0,25.0,100,57,12,0.00,40.00,10,3,24,0.00
2013-5-5,84.0,63.7,53.0,50.0,38.6,29.0,87,46,17,0.00,40.00,16,6,28,0.00
2013-5-6,63.0,54.9,49.0,52.0,49.1,46.0,100,83,61,0.00,40.00,8,4,15,0.00
2013-5-7,59.0,53.6,50.0,52.0,49.6,47.0,100,87,72,0.00,40.00,9,6,17,0.00
2013-5-8,60.0,54.1,50.0,49.0,48.1,46.0,91,80,64,0.00,40.00,8,4,14,0.00
2013-5-9,58.0,52.2,49.0,51.0,49.4,47.0,100,91,75,0.00,40.00,14,5,23,0.00
2013-5-10,56.0,51.0,48.0,52.0,47.6,-99.9,100,92,80,0.00,40.00,5,1,11,0.00
2013-5-11,68.0,56.1,45.0,53.0,46.9,-99.9,100,76,55,0.00,40.00,7,2,10,0.00
2013-5-12,65.0,58.2,54.0,56.0,53.5,49.0,100,86,62,0.00,40.00,10,6,17,0.04
2013-5-13,59.0,54.0,48.0,58.0,53.5,48.0,100,98,86,0.00,40.00,9,4,20,0.09
2013-5-14,59.0,53.0,46.0,51.0,47.2,44.0,100,82,61,0.00,40.00,12,5,21,0.01
2013-5-15,62.0,52.5,45.0,53.0,49.4,45.0,100,90,55,0.00,40.00,10,4,18,0.01
2013-5-16,61.0,49.8,52.0,56.0,30.5,-99.9,100,94,71,0.00,40.00,9,5,18,0.12
2013-5-17,62.0,54.5,47.0,54.0,44.0,-99.9,100,84,59,0.00,40.00,6,2,13,0.15
2013-5-18,55.0,52.0,47.0,55.0,51.4,47.0,100,98,88,0.00,40.00,12,6,23,0.06
2013-5-19,59.0,54.2,50.0,54.0,48.8,44.0,100,83,63,0.00,40.00,18,11,33,0.02
2013-5-20,59.0,52.0,45.0,51.0,47.9,45.0,100,87,69,0.00,40.00,12,5,24,0.01
2013-5-21,52.0,48.0,45.0,50.0,45.0,37.0,100,90,65,0.00,40.00,14,6,28,0.77
2013-5-22,50.0,46.7,43.0,50.0,46.4,41.0,100,99,86,0.00,40.00,10,4,20,1.06
2013-5-23,56.0,49.6,45.0,52.0,48.3,45.0,100,96,79,0.00,40.00,11,7,21,0.31
2013-5-24,55.0,50.5,46.0,51.0,48.1,44.0,100,92,78,0.00,40.00,8,3,15,0.28
2013-5-25,60.0,51.9,42.0,53.0,48.0,42.0,100,88,68,0.00,40.00,7,3,15,0.18
2013-5-26,59.0,53.7,50.0,54.0,51.8,50.0,100,93,78,0.00,40.00,11,7,22,0.25
2013-5-27,56.0,53.4,51.0,56.0,53.3,51.0,100,100,94,0.00,40.00,18,10,38,0.70
2013-5-28,60.0,54.1,50.0,56.0,51.3,47.0,100,91,67,0.00,40.00,11,7,18,0.14
2013-5-29,57.0,54.1,49.0,56.0,52.7,48.0,100,95,85,0.00,40.00,20,6,35,0.21
2013-5-30,63.0,54.0,48.0,51.0,48.9,47.0,100,84,55,0.00,40.00,6,3,15,0.01
2013-5-31,61.0,53.5,44.0,55.0,48.9,44.0,100,86,66,0.00,40.00,14,6,26,0.00
2013-6-1,65.0,55.1,45.0,56.0,50.9,45.0,100,87,70,0.00,40.00,8,3,16,0.00
2013-6-2,61.0,55.8,51.0,57.0,53.2,49.0,100,91,78,0.00,40.00,17,10,34,0.02
2013-6-3,60.0,53.6,45.0,52.0,49.9,45.0,100,88,72,0.00,40.00,17,9,34,0.02
2013-6-4,60.0,54.1,47.0,56.0,51.5,47.0,100,92,74,0.00,40.00,13,7,28,0.00
2013-6-5,61.0,54.1,49.0,58.0,53.3,49.0,100,97,85,0.00,40.00,18,10,34,0.00
2013-6-6,59.0,54.6,50.0,54.0,52.0,50.0,100,91,78,0.00,40.00,16,8,30,0.00
2013-6-7,63.0,55.4,46.0,56.0,51.9,46.0,100,89,66,0.00,40.00,14,6,25,0.00
2013-6-8,59.0,54.0,47.0,53.0,50.0,47.0,100,87,69,0.00,40.00,18,10,35,0.00
2013-6-9,59.0,54.2,50.0,51.0,48.6,45.0,96,82,70,0.00,40.00,22,14,37,0.00
2013-6-10,60.0,53.9,47.0,50.0,47.2,41.0,100,79,62,0.00,40.00,15,10,28,0.00
2013-6-11,62.0,53.8,45.0,52.0,49.1,45.0,100,85,66,0.00,40.00,7,3,14,0.00
2013-6-12,61.0,52.0,43.0,55.0,49.0,43.0,100,90,70,0.00,40.00,8,2,13,0.04
2013-6-13,60.0,54.0,49.0,56.0,52.5,49.0,100,95,78,0.00,40.00,6,3,11,0.10
2013-6-14,62.0,55.5,48.0,54.0,51.5,48.0,100,87,66,0.00,40.00,13,6,28,0.01
2013-6-15,61.0,53.8,46.0,57.0,52.2,46.0,100,95,83,0.00,40.00,6,2,11,0.00
2013-6-16,64.0,55.6,45.0,55.0,50.8,45.0,100,85,63,0.00,40.00,7,3,14,0.00
2013-6-17,61.0,54.9,46.0,56.0,53.2,46.0,100,95,73,0.00,40.00,10,5,21,0.05
2013-6-18,61.0,55.9,51.0,57.0,53.2,51.0,100,91,73,0.00,40.00,12,7,25,0.05
2013-6-19,65.0,57.0,52.0,56.0,53.5,52.0,100,89,73,0.00,40.00,7,6,16,0.10
2013-6-20,62.0,55.7,52.0,55.0,53.2,51.0,100,92,68,0.00,40.00,6,4,12,0.01
2013-6-22,70.0,63.5,52.0,59.0,56.3,52.0,100,79,61,0.00,40.00,6,4,16,0.03
2013-6-23,66.0,59.9,55.0,66.0,59.8,55.0,100,100,91,0.00,40.00,11,4,20,0.29
2013-6-24,63.0,57.1,54.0,58.0,56.0,54.0,100,96,80,0.00,40.00,9,6,19,0.39
2013-6-25,62.0,57.9,55.0,61.0,57.8,55.0,100,100,97,0.00,40.00,16,10,32,0.67
2013-6-26,69.0,62.4,57.0,64.0,60.5,57.0,100,94,77,0.00,40.00,10,5,19,0.28
2013-6-27,69.0,63.2,56.0,64.0,60.8,56.0,100,92,76,0.00,40.00,7,3,20,0.07
2013-6-28,76.0,64.6,56.0,67.0,60.2,56.0,100,87,65,0.00,40.00,6,2,11,0.00
2013-6-29,77.0,65.6,57.0,64.0,60.5,57.0,100,85,59,0.00,40.00,11,4,22,0.00
2013-6-30,70.0,63.9,59.0,67.0,61.5,59.0,100,93,77,0.00,40.00,7,4,14,0.00
2013-7-1,67.0,61.7,58.0,63.0,60.7,58.0,100,97,80,0.00,40.00,13,7,21,0.00
2013-7-2,67.0,61.5,57.0,62.0,59.4,57.0,100,93,79,0.00,40.00,17,9,33,0.00
2013-7-3,65.0,59.0,52.0,58.0,55.4,52.0,100,88,76,0.00,40.00,18,10,33,0.00
2013-7-4,65.0,58.4,50.0,58.0,53.6,50.0,100,85,68,0.00,40.00,18,10,31,0.00
2013-7-5,66.0,57.9,47.0,57.0,53.1,47.0,100,85,70,0.00,40.00,15,8,29,0.00
2013-7-6,66.0,56.3,50.0,56.0,52.4,50.0,100,88,66,0.00,40.00,17,8,30,0.00
2013-7-7,65.0,58.4,51.0,58.0,54.2,51.0,100,87,68,0.00,40.00,15,9,28,0.00
2013-7-8,65.0,56.1,47.0,56.0,52.5,47.0,100,89,68,0.00,40.00,15,6,29,0.00
2013-7-9,60.0,54.0,48.0,59.0,53.5,48.0,100,98,89,0.00,40.00,16,7,31,0.00
2013-7-10,61.0,55.0,48.0,56.0,47.5,-99.9,100,82,68,0.00,40.00,19,12,37,0.00
2013-7-11,64.0,55.5,48.0,55.0,49.6,47.0,100,82,59,0.00,40.00,15,8,34,0.00
2013-7-12,64.0,54.7,43.0,53.0,49.0,43.0,100,82,60,0.00,40.00,14,8,25,0.00
2013-7-13,64.0,54.4,44.0,53.0,49.5,44.0,100,85,59,0.00,40.00,20,9,39,0.00
2013-7-14,60.0,52.4,44.0,54.0,50.5,44.0,100,93,80,0.00,40.00,20,9,39,0.00
2013-7-15,60.0,53.0,44.0,54.0,50.5,44.0,100,92,80,0.00,40.00,14,8,31,0.00
2013-7-16,58.0,54.4,52.0,57.0,54.1,52.0,100,99,93,0.00,40.00,11,9,18,0.00
2013-7-17,65.0,57.9,51.0,56.0,53.9,50.0,100,87,65,0.00,40.00,10,5,18,0.00
2013-7-18,63.0,56.3,45.0,59.0,51.5,45.0,100,85,68,0.00,40.00,16,9,32,0.00
2013-7-19,62.0,55.0,47.0,56.0,52.1,47.0,100,91,74,0.00,40.00,18,10,36,0.00
2013-7-20,61.0,55.0,50.0,55.0,51.1,-99.9,100,90,73,0.00,40.00,19,11,32,0.00
2013-7-21,61.0,55.4,48.0,56.0,53.1,48.0,100,93,78,0.00,40.00,16,9,33,0.00
2013-7-22,61.0,55.0,50.0,58.0,52.7,50.0,100,92,77,0.00,40.00,16,9,30,0.00
2013-7-23,57.0,51.4,48.0,55.0,50.9,48.0,100,98,84,0.00,40.00,15,5,28,0.00
2013-7-24,58.0,51.9,48.0,55.0,51.0,48.0,100,97,81,0.00,40.00,15,6,28,0.00
2013-7-25,58.0,52.4,47.0,55.0,50.9,47.0,100,95,83,0.00,40.00,19,8,33,0.00
2013-7-26,59.0,52.7,46.0,55.0,50.8,46.0,100,94,82,0.00,40.00,21,9,43,0.00
2013-7-27,62.0,56.1,49.0,55.0,52.6,49.0,100,89,74,0.00,40.00,19,11,33,0.00
2013-7-28,65.0,56.9,49.0,56.0,52.8,49.0,100,87,69,0.00,40.00,16,8,29,0.00
2013-7-29,64.0,54.9,48.0,56.0,52.3,48.0,100,92,69,0.00,40.00,10,4,18,0.00
2013-7-30,61.0,56.4,52.0,58.0,54.7,52.0,100,94,79,0.00,40.00,6,2,11,0.00
2013-7-31,60.0,56.6,54.0,59.0,56.0,54.0,100,98,91,0.00,40.00,6,2,12,0.00
2013-8-1,65.0,57.9,55.0,62.0,57.2,55.0,100,98,84,0.00,40.00,4,2,11,0.08
2013-8-2,65.0,58.2,55.0,62.0,57.0,55.0,100,96,83,0.00,40.00,11,4,21,0.08
2013-8-3,66.0,57.6,51.0,61.0,55.5,51.0,100,93,78,0.00,40.00,15,7,26,0.01
2013-8-4,61.0,54.4,50.0,58.0,53.9,50.0,100,98,88,0.00,40.00,13,6,29,0.00
2013-8-5,60.0,54.3,50.0,58.0,53.1,50.0,100,96,82,0.00,40.00,13,6,24,0.00
2013-8-6,58.0,52.7,48.0,54.0,51.5,48.0,100,96,83,0.00,40.00,11,3,22,0.00
2013-8-7,57.0,52.9,51.0,57.0,52.9,51.0,100,100,100,0.00,40.00,5,1,9,0.00
2013-8-8,63.0,55.8,52.0,62.0,55.0,52.0,100,98,85,0.00,40.00,12,4,23,0.02
2013-8-9,61.0,54.9,51.0,58.0,54.4,51.0,100,98,88,0.00,40.00,10,4,21,0.01
2013-8-10,62.0,56.7,53.0,61.0,56.6,53.0,100,100,95,0.00,40.00,5,1,10,0.01
2013-8-11,65.0,59.1,54.0,60.0,57.0,54.0,100,93,82,0.00,40.00,6,2,12,0.01
2013-8-12,66.0,58.7,52.0,60.0,56.9,52.0,100,94,79,0.00,40.00,9,2,18,0.00
2013-8-13,69.0,56.8,47.0,61.0,51.1,-99.9,100,86,58,0.00,40.00,9,3,17,0.00
2013-8-14,73.0,61.3,52.0,64.0,57.3,52.0,100,88,58,0.00,40.00,10,4,19,0.00
2013-8-15,69.0,58.1,59.0,69.0,49.8,-99.9,100,93,92,0.00,40.00,6,2,11,0.09
2013-8-16,72.0,60.2,55.0,64.0,54.7,-99.9,100,90,69,0.00,40.00,5,1,11,0.01
2013-8-17,69.0,60.5,53.0,65.0,58.1,-99.9,100,95,87,0.00,40.00,7,3,13,0.00
2013-8-18,71.0,61.1,52.0,65.0,58.5,52.0,100,92,68,0.00,40.00,12,5,23,0.00
2013-8-19,69.0,56.9,52.0,65.0,49.1,-99.9,100,91,71,0.00,40.00,16,8,31,0.00
2013-8-20,65.0,56.8,51.0,57.0,51.6,-99.9,100,88,65,0.00,40.00,19,8,34,0.00
2013-8-21,66.0,55.7,46.0,58.0,52.2,46.0,100,89,61,0.00,40.00,11,4,21,0.00
2013-8-22,62.0,55.8,50.0,58.0,54.9,50.0,100,97,83,0.00,40.00,6,3,12,0.00
2013-8-23,70.0,59.8,54.0,63.0,57.9,54.0,100,94,75,0.00,40.00,6,2,11,0.00
2013-8-24,64.0,58.2,50.0,60.0,55.7,-99.9,100,95,83,0.00,40.00,7,3,14,0.00
2013-8-25,67.0,54.8,49.0,61.0,54.5,49.0,100,99,82,0.00,40.00,6,2,12,0.03
2013-8-26,69.0,58.1,47.0,64.0,53.2,47.0,100,85,56,0.00,40.00,16,7,30,0.02
2013-8-27,76.0,64.9,60.0,66.0,62.2,60.0,100,92,65,0.00,40.00,8,3,18,0.01
2013-8-28,71.0,67.4,63.0,65.0,62.4,60.0,100,85,72,0.00,40.00,8,4,17,0.00
2013-8-29,66.0,62.6,61.0,66.0,62.6,61.0,100,100,100,0.00,40.00,17,7,33,0.47
2013-8-30,72.0,63.3,55.0,69.0,61.6,55.0,100,95,79,0.00,40.00,11,4,19,0.12
2013-8-31,66.0,57.5,53.0,64.0,55.5,-99.9,100,96,86,0.00,40.00,5,2,12,0.00
2013-9-1,77.0,63.3,49.0,65.0,57.4,49.0,100,84,47,0.00,40.00,9,4,20,0.01
2013-9-2,71.0,64.1,54.0,67.0,61.1,54.0,100,91,72,0.00,40.00,10,6,19,0.14
2013-9-3,72.0,62.2,54.0,63.0,58.5,54.0,100,89,64,0.00,40.00,9,3,17,0.04
2013-9-4,72.0,63.7,59.0,64.0,61.4,59.0,100,93,76,0.00,40.00,6,1,12,0.00
2013-9-5,64.0,60.6,58.0,64.0,60.6,58.0,100,100,96,0.00,40.00,6,2,17,0.27
2013-9-6,71.0,64.0,58.0,67.0,61.4,58.0,100,92,71,0.00,40.00,7,5,13,0.19
2013-9-7,68.0,60.2,54.0,64.0,56.9,-99.9,100,92,77,0.00,40.00,12,4,24,0.01
2013-9-8,68.0,60.2,57.0,64.0,59.5,57.0,100,98,84,0.00,40.00,14,5,29,0.00
2013-9-9,66.0,58.7,54.0,63.0,58.1,54.0,100,98,87,0.00,40.00,15,7,28,0.00
2013-9-10,64.0,57.5,51.0,61.0,55.6,51.0,100,94,79,0.00,40.00,14,5,26,0.00
2013-9-11,63.0,59.2,54.0,63.0,59.1,54.0,100,99,95,0.00,40.00,11,6,22,0.00
2013-9-12,65.0,60.2,57.0,62.0,59.7,57.0,100,98,87,0.00,40.00,5,2,11,0.00
2013-9-13,67.0,60.1,55.0,62.0,58.7,55.0,100,95,81,0.00,40.00,9,3,17,0.01
2013-9-14,63.0,58.4,56.0,63.0,57.0,-99.9,100,99,100,0.00,40.00,6,2,10,0.01
2013-9-15,62.0,58.2,56.0,62.0,58.2,56.0,100,100,100,0.00,40.00,12,6,19,0.05
2013-9-16,69.0,61.4,57.0,64.0,59.6,57.0,100,94,73,0.00,40.00,5,3,10,0.04
2013-9-17,69.0,60.6,55.0,63.0,58.7,55.0,100,94,77,0.00,40.00,8,4,18,0.12
2013-9-18,57.0,55.1,53.0,57.0,55.1,53.0,100,100,100,0.00,40.00,4,2,9,0.12
2013-9-19,69.0,59.9,52.0,61.0,54.8,50.0,100,84,66,0.00,40.00,6,3,13,0.00
2013-9-20,61.0,56.4,50.0,61.0,56.3,50.0,100,99,89,0.00,40.00,9,2,17,0.52
2013-9-21,65.0,58.2,54.0,60.0,55.2,-99.9,100,93,73,0.00,40.00,7,4,16,0.22
2013-9-22,61.0,58.1,57.0,60.0,57.5,55.0,100,98,84,0.00,40.00,18,12,37,0.25
2013-9-23,64.0,58.8,55.0,61.0,58.0,55.0,100,97,78,0.00,40.00,11,7,22,0.03
2013-9-24,61.0,54.8,51.0,59.0,54.2,51.0,100,98,82,0.00,40.00,8,3,16,0.81
2013-9-25,61.0,52.4,46.0,54.0,49.6,46.0,100,91,67,0.00,40.00,8,4,13,0.52
2013-9-26,64.0,51.9,42.0,58.0,49.4,42.0,100,92,71,0.00,40.00,6,2,11,0.01
2013-9-27,58.0,51.7,43.0,58.0,51.6,43.0,100,100,98,0.00,40.00,13,6,25,0.36
2013-9-28,61.0,57.3,52.0,61.0,56.0,-99.9,100,99,100,0.00,40.00,28,16,50,1.22
2013-9-29,60.0,56.7,55.0,60.0,56.6,54.0,100,100,92,0.00,40.00,25,15,48,1.98
2013-9-30,63.0,56.4,52.0,59.0,54.7,51.0,100,94,85,0.00,40.00,12,8,34,1.08
2013-10-1,61.0,51.8,43.0,50.0,46.5,43.0,100,84,58,0.00,40.00,2,0,7,0.42
2013-10-2,60.0,48.6,41.0,55.0,47.6,41.0,100,96,80,0.00,40.00,8,2,19,0.34
2013-10-3,62.0,50.4,41.0,54.0,47.5,41.0,100,91,68,0.00,40.00,8,2,15,0.01
2013-10-4,66.0,53.2,42.0,56.0,48.2,42.0,100,86,47,0.00,40.00,8,3,16,0.01
2013-10-5,73.0,57.1,46.0,56.0,49.2,45.0,100,79,45,0.00,40.00,6,2,17,0.00
2013-10-6,70.0,56.7,44.0,57.0,51.2,44.0,100,83,40,0.00,40.00,11,5,25,0.00
2013-10-7,64.0,56.5,50.0,57.0,52.9,48.0,100,89,64,0.00,40.00,7,3,14,0.25
2013-10-8,54.0,51.1,47.0,54.0,51.1,47.0,100,100,99,0.00,40.00,7,2,17,0.24
2013-10-9,62.0,51.1,42.0,52.0,47.8,42.0,100,90,66,0.00,40.00,13,4,22,0.05
2013-10-10,63.0,52.8,45.0,55.0,50.0,45.0,100,91,71,0.00,40.00,11,3,20,0.01
2013-10-11,61.0,51.4,45.0,50.0,47.3,44.0,100,87,63,0.00,40.00,8,2,16,0.00
2013-10-12,59.0,48.7,42.0,56.0,46.7,-99.9,100,97,83,0.00,40.00,4,1,9,0.17
2013-10-13,62.0,51.4,44.0,53.0,49.0,44.0,100,92,72,0.00,40.00,10,3,18,0.01
2013-10-14,65.0,51.9,42.0,54.0,47.9,42.0,100,88,56,0.00,40.00,9,2,18,0.00
2013-10-15,66.0,53.0,43.0,51.0,45.7,42.0,100,79,44,0.00,40.00,8,2,15,0.00
2013-10-16,61.0,51.8,44.0,55.0,47.7,42.0,100,87,65,0.00,40.00,9,3,16,0.00
2013-10-17,60.0,49.8,42.0,56.0,49.1,42.0,100,98,87,0.00,40.00,9,3,17,0.00
2013-10-18,69.0,54.0,46.0,52.0,49.1,46.0,100,86,47,0.00,40.00,8,2,15,0.01
2013-10-19,63.0,52.1,44.0,55.0,47.9,-99.9,100,90,67,0.00,40.00,8,3,15,0.01
2013-10-20,52.0,48.2,44.0,52.0,48.2,44.0,100,100,100,0.00,40.00,9,3,18,0.00
2013-10-21,55.0,48.1,42.0,54.0,47.9,42.0,100,99,92,0.00,40.00,6,2,12,0.00
2013-10-22,52.0,49.8,48.0,52.0,49.8,48.0,100,100,100,0.00,40.00,2,0,8,0.01
2013-10-23,53.0,49.4,46.0,53.0,49.4,46.0,100,100,100,0.00,40.00,5,1,12,0.01
2013-10-24,54.0,50.2,48.0,54.0,50.2,48.0,100,100,100,0.00,40.00,7,2,14,0.01
2013-10-25,57.0,51.9,49.0,56.0,51.8,49.0,100,100,96,0.00,40.00,5,1,10,0.00
2013-10-26,57.0,50.7,47.0,52.0,48.2,-99.9,100,95,80,0.00,40.00,11,4,18,0.01
2013-10-27,55.0,50.5,45.0,53.0,50.1,45.0,100,99,94,0.00,40.00,12,3,22,0.04
2013-10-28,60.0,47.3,37.0,54.0,41.5,-99.9,100,87,59,0.00,40.00,8,2,14,0.01
2013-10-29,61.0,44.8,37.0,41.0,38.3,35.0,100,81,43,0.00,40.00,6,2,12,0.00
2013-10-30,58.0,44.8,33.0,49.0,41.5,33.0,100,90,65,0.00,40.00,4,1,9,0.00
2013-10-31,55.0,51.7,48.0,55.0,50.7,46.0,100,96,83,0.00,40.00,5,1,16,0.02
2013-11-1,66.0,53.2,46.0,58.0,51.4,46.0,100,94,68,0.00,40.00,8,2,14,0.01
2013-11-2,59.0,50.9,47.0,53.0,47.3,-99.9,100,91,68,0.00,40.00,14,5,28,0.46
2013-11-3,51.0,46.2,41.0,51.0,45.7,41.0,100,98,90,0.00,40.00,7,3,14,0.13
2013-11-4,52.0,47.4,42.0,51.0,47.3,42.0,100,99,94,0.00,40.00,7,5,14,0.15
2013-11-5,53.0,51.9,50.0,53.0,51.9,50.0,100,100,100,0.00,40.00,12,9,22,0.49
2013-11-6,60.0,55.3,52.0,60.0,55.3,52.0,100,100,100,0.00,40.00,8,3,14,0.16
2013-11-7,55.0,51.7,45.0,55.0,51.6,45.0,100,100,97,0.00,40.00,14,6,29,0.48
2013-11-8,56.0,49.3,45.0,53.0,48.1,45.0,100,96,77,0.00,40.00,6,2,8,0.02
2013-11-9,55.0,47.8,43.0,50.0,45.2,-99.9,100,95,84,0.00,40.00,5,2,10,0.01
2013-11-10,64.0,52.0,46.0,54.0,50.1,46.0,100,94,60,0.00,40.00,8,3,15,0.00
2013-11-11,61.0,52.4,47.0,54.0,49.4,47.0,100,90,73,0.00,40.00,5,2,12,0.00
2013-11-12,58.0,53.5,49.0,58.0,53.5,49.0,100,100,91,0.00,40.00,10,4,18,0.49
2013-11-13,57.0,50.3,41.0,56.0,50.0,41.0,100,99,90,0.00,40.00,6,2,11,0.05
2013-11-14,52.0,45.8,40.0,52.0,45.6,40.0,100,99,92,0.00,40.00,2,1,7,0.21
2013-11-15,51.0,45.7,40.0,51.0,45.6,40.0,100,100,98,0.00,40.00,10,4,20,0.20
2013-11-16,57.0,50.6,47.0,51.0,45.7,-99.9,100,87,71,0.00,40.00,8,4,22,0.12
2013-11-17,55.0,50.1,46.0,52.0,48.9,46.0,100,95,83,0.00,40.00,10,6,21,0.19
2013-11-18,54.0,52.1,50.0,54.0,50.0,46.0,100,93,77,0.00,40.00,18,9,36,0.63
2013-11-19,54.0,50.6,44.0,54.0,49.6,36.0,100,96,72,0.00,40.00,17,12,36,0.45
2013-11-20,49.0,39.6,32.0,36.0,32.5,28.0,99,77,55,0.00,40.00,7,3,19,0.01
2013-11-21,54.0,38.0,26.0,31.0,24.0,18.0,100,64,25,0.00,40.00,6,1,13,0.00
2013-11-22,56.0,43.5,35.0,24.0,20.5,16.0,49,40,28,0.00,40.00,9,6,20,0.00
2013-11-23,60.0,48.8,42.0,28.0,22.8,-99.9,44,37,29,0.00,40.00,9,6,20,0.00
2013-11-24,63.0,44.6,35.0,36.0,28.1,22.0,100,55,33,0.00,40.00,8,4,19,0.00
2013-11-25,59.0,42.9,34.0,42.0,37.3,33.0,100,83,44,0.00,40.00,5,2,10,0.00
2013-11-26,57.0,47.1,39.0,44.0,39.8,36.0,100,77,58,0.00,40.00,5,3,12,0.00
2013-11-27,62.0,49.7,42.0,42.0,38.1,34.0,77,65,48,0.00,40.00,6,4,14,0.00
2013-11-28,57.0,46.5,42.0,47.0,38.1,32.0,96,73,48,0.00,40.00,5,2,13,0.00
2013-11-29,55.0,45.7,37.0,49.0,42.7,35.0,100,90,69,0.00,40.00,6,2,14,0.00
2013-11-30,56.0,47.0,41.0,51.0,44.7,-99.9,100,95,81,0.00,40.00,8,1,12,0.00
2013-12-1,52.0,50.7,48.0,52.0,50.7,48.0,100,100,100,0.00,40.00,16,12,29,0.21
2013-12-2,52.0,45.1,36.0,52.0,43.1,35.0,100,93,72,0.00,40.00,14,6,28,1.08
2013-12-3,48.0,36.9,30.0,43.0,35.8,27.0,100,96,72,0.00,40.00,4,1,13,0.10
2013-12-4,45.0,32.3,25.0,30.0,24.8,20.0,100,77,38,0.00,40.00,3,1,10,0.01
2013-12-5,39.0,31.7,26.0,27.0,22.8,19.0,83,70,55,0.00,40.00,4,2,10,0.01
2013-12-6,34.0,32.0,30.0,33.0,30.1,25.0,100,93,75,0.00,40.00,6,3,16,0.11
2013-12-7,35.0,26.1,20.0,25.0,16.7,-99.9,89,71,50,0.00,40.00,4,1,11,0.01
2013-12-8,40.0,27.7,20.0,22.0,16.3,12.0,78,63,41,0.00,40.00,5,3,14,0.00
2013-12-9,45.0,31.9,25.0,29.0,22.1,14.0,85,68,48,0.00,40.00,6,3,15,0.00
2013-12-10,43.0,35.8,32.0,31.0,28.7,26.0,88,76,59,0.00,40.00,5,3,14,0.00
2013-12-11,50.0,38.9,32.0,35.0,31.6,28.0,89,76,55,0.00,40.00,7,5,17,0.00
2013-12-12,46.0,39.8,29.0,46.0,39.2,29.0,100,98,89,0.00,40.00,11,5,20,0.42
2013-12-13,50.0,45.8,41.0,50.0,45.8,41.0,100,100,100,0.00,40.00,8,2,13,0.07
2013-12-14,50.0,41.9,38.0,47.0,40.1,-99.9,100,99,84,0.00,40.00,4,2,12,0.01
2013-12-15,55.0,45.0,37.0,51.0,44.2,37.0,100,97,78,0.00,40.00,2,0,6,0.00
2013-12-16,55.0,47.8,42.0,48.0,44.9,39.0,100,90,72,0.00,40.00,8,3,18,0.00
2013-12-17,51.0,42.8,37.0,46.0,41.4,37.0,100,95,74,0.00,40.00,7,3,12,0.00
2013-12-18,48.0,42.8,39.0,47.0,41.6,32.0,100,96,76,0.00,40.00,11,4,21,0.01
2013-12-19,46.0,36.8,29.0,38.0,33.1,29.0,100,88,62,0.00,40.00,4,1,12,0.01
2013-12-20,50.0,40.9,33.0,50.0,38.8,33.0,100,93,66,0.00,40.00,15,4,21,0.42
2013-12-21,50.0,46.7,44.0,50.0,45.4,-99.9,100,99,100,0.00,40.00,4,1,8,0.30
2013-12-22,52.0,47.3,44.0,52.0,47.3,44.0,100,100,100,0.00,40.00,4,1,7,0.01
2013-12-23,50.0,47.1,39.0,50.0,47.1,39.0,100,100,100,0.00,40.00,7,2,13,0.10
2013-12-24,51.0,41.1,34.0,46.0,39.9,34.0,100,96,75,0.00,40.00,5,2,12,0.01
2013-12-25,55.0,41.1,34.0,41.0,37.3,34.0,100,88,58,0.00,40.00,7,2,15,0.01
2013-12-26,55.0,43.1,36.0,41.0,37.4,35.0,100,81,56,0.00,40.00,6,3,16,0.00
2013-12-27,55.0,42.0,34.0,46.0,39.8,34.0,100,92,69,0.00,40.00,7,1,14,0.00
2013-12-28,53.0,40.8,36.0,46.0,37.7,-99.9,100,93,68,0.00,40.00,7,1,15,0.00
2013-12-29,50.0,41.4,35.0,40.0,37.0,34.0,100,86,64,0.00,40.00,5,2,14,0.00
2013-12-30,51.0,43.7,39.0,44.0,38.4,34.0,100,82,75,0.00,40.00,5,2,14,0.00
2013-12-31,54.0,42.9,36.0,48.0,41.7,36.0,100,96,74,0.00,40.00,4,1,9,0.00
2014-1-1,55.0,45.3,40.0,44.0,41.4,39.0,100,88,67,0.00,40.00,6,2,14,0.00
2014-1-2,60.0,46.1,40.0,49.0,42.5,38.0,100,88,66,0.00,40.00,6,3,13,0.00